GW3823 Weather Reports


Display with metric or nautical units.
time (UTC)temp
F
wind
direction
speed
MPH
gust
MPH
rain 1hr
in
rain 24hr
in
rain mn
in
humidity
%
barometer
mb
20260503060306 39 67 5.0 12.0 0.00 0.00 0.00 54 1012.8
20260503054806 38 57 7.0 10.0 0.00 0.00 0.00 53 1012.7
20260503054306 40 65 5.0 7.0 0.00 0.00 0.00 52 1012.5
20260503053806 40 110 3.0 12.0 0.00 0.00 0.00 51 1012.5
20260503053305 41 58 7.0 12.0 0.00 0.00 0.00 51 1012.6
20260503052306 42 72 5.0 9.0 0.00 0.00 0.00 47 1012.5
20260503051806 42 70 6.0 9.0 0.00 0.00 0.00 35 1021.1
20260503051306 42 79 6.0 12.0 0.00 0.00 0.00 48 1012.5
20260503050806 41 72 7.0 13.0 0.00 0.00 0.00 49 1012.3
20260503045806 42 52 6.0 10.0 0.00 0.00 0.00 48 1012.4
20260503045305 44 70 8.0 13.0 0.00 0.00 0.00 48 1012.4
20260503044806 42 67 7.0 13.0 0.00 0.00 0.00 47 1012.3
20260503043306 44 67 7.0 12.0 0.00 0.00 0.00 34 1018.9
20260503042806 43 62 7.0 12.0 0.00 0.00 0.00 43 1012.3
20260503042305 46 102 4.0 12.0 0.00 0.00 0.00 42 1012.0
20260503041806 44 54 8.0 15.0 0.00 0.00 0.00 35 1017.9
20260503040806 44 61 7.0 15.0 0.00 0.00 0.00 43 1012.0
20260503040306 46 77 6.0 12.0 0.00 0.00 0.00 41 1012.0
20260503035805 43 88 7.0 13.0 0.00 0.00 0.00 25 1019.5
20260503034806 46 51 9.0 12.0 0.00 0.00 0.00 40 1011.8
20260503034305 47 70 9.0 14.0 0.00 0.00 0.00 40 1012.1
20260503033806 46 75 9.0 13.0 0.00 0.00 0.00 40 1011.8
20260503033306 48 44 6.0 15.0 0.00 0.00 0.00 39 1011.8
20260503032806 46 65 9.0 14.0 0.00 0.00 0.00 39 1011.9
20260503031805 47 68 6.0 12.0 0.00 0.00 0.00 38 1011.7
20260503031306 45 68 6.0 10.0 0.00 0.00 0.00 31 1015.4
20260503030805 48 86 7.0 15.0 0.00 0.00 0.00 37 1011.5
20260503030306 49 61 9.0 15.0 0.00 0.00 0.00 37 1011.5
20260503025805 46 53 6.0 10.0 0.00 0.00 0.00 38 1011.5
20260503025306 55 55 6.0 9.0 0.00 0.00 0.00 38 1011.4
20260503024806 46 53 5.0 9.0 0.00 0.00 0.00 38 1011.3
20260503024305 47 37 3.0 5.0 0.00 0.00 0.00 38 1011.4
20260503023806 47 187 1.0 2.0 0.00 0.00 0.00 22 1013.1
20260503022305 52 51 1.0 2.0 0.00 0.00 0.00 34 1010.9
20260503021805 51 151 0.0 3.0 0.00 0.00 0.00 24 1011.0
20260503020806 53 31 0.0 2.0 0.00 0.00 0.00 29 1010.9
20260503020306 54 46 0.0 2.0 0.00 0.00 0.00 25 1010.9
20260503015806 54 215 0.0 2.0 0.00 0.00 0.00 29 1016.0
20260503015306 55 12 1.0 3.0 0.00 0.00 0.00 28 1010.7
20260503014306 56 273 1.0 5.0 0.00 0.00 0.00 27 1010.7
20260503013805 55 317 1.0 5.0 0.00 0.00 0.00 25 1010.7
20260503013305 56 39 3.0 5.0 0.00 0.00 0.00 25 1016.4
20260503012805 56 306 2.0 5.0 0.00 0.00 0.00 24 1010.6
20260503012306 57 184 1.0 5.0 0.00 0.00 0.00 21 1010.5
20260503011805 56 255 1.0 5.0 0.00 0.00 0.00 22 1010.5
20260503010805 57 229 2.0 7.0 0.00 0.00 0.00 21 1010.6
20260503010306 56 64 1.0 10.0 0.00 0.00 0.00 21 1010.3
20260503005805 58 168 3.0 9.0 0.00 0.00 0.00 19 1010.5
20260503005306 59 187 5.0 9.0 0.00 0.00 0.00 18 1010.4
20260503004805 58 184 3.0 8.0 0.00 0.00 0.00 20 1010.4
20260503004306 60 209 3.0 9.0 0.00 0.00 0.00 19 1010.4
20260503003805 61 49 2.0 9.0 0.00 0.00 0.00 18 1016.4
20260503002805 62 225 2.0 10.0 0.00 0.00 0.00 20 1010.4
20260503002305 60 186 3.0 8.0 0.00 0.00 0.00 19 1010.6
20260503001806 62 105 1.0 6.0 0.00 0.00 0.00 18 1018.7
20260503001306 62 175 3.0 13.0 0.00 0.00 0.00 18 1010.4
20260503000806 60 130 5.0 15.0 0.00 0.00 0.00 19 1010.4
20260503000305 61 158 6.0 20.0 0.00 0.00 0.00 18 1010.4
20260502235805 68 220 2.0 18.0 0.00 0.00 0.00 18 1010.4
20260502235305 67 195 9.0 18.0 0.00 0.00 0.00 20 1016.8
20260502233305 68 228 2.0 9.0 0.00 0.00 0.00 20 1014.8
20260502232305 67 180 7.0 14.0 0.00 0.00 0.00 20 1016.1
20260502231806 68 237 4.0 13.0 0.00 0.00 0.00 14 1010.5
20260502231305 67 175 6.0 15.0 0.00 0.00 0.00 20 1010.4
20260502230805 66 159 8.0 15.0 0.00 0.00 0.00 21 1010.4
20260502230305 66 169 4.0 17.0 0.00 0.00 0.00 21 1010.4
20260502225806 66 157 3.0 15.0 0.00 0.00 0.00 21 1010.5
20260502224805 66 58 7.0 12.0 0.00 0.00 0.00 21 1010.6
20260502224305 65 198 6.0 18.0 0.00 0.00 0.00 23 1010.5
20260502223305 66 138 5.0 16.0 0.00 0.00 0.00 22 1020.0
20260502222306 66 169 6.0 16.0 0.00 0.00 0.00 23 1010.9
20260502221805 66 197 6.0 24.0 0.00 0.00 0.00 23 1020.0
20260502221305 66 168 6.0 17.0 0.00 0.00 0.00 17 1010.8
20260502220805 66 184 6.0 10.0 0.00 0.00 0.00 22 1010.8
20260502220305 65 147 3.0 10.0 0.00 0.00 0.00 22 1010.8
20260502215806 66 169 4.0 15.0 0.00 0.00 0.00 22 1011.1
20260502214305 66 128 2.0 7.0 0.00 0.00 0.00 23 1011.1
20260502213804 66 153 3.0 10.0 0.00 0.00 0.00 20 1011.3
20260502213306 66 161 5.0 10.0 0.00 0.00 0.00 21 1011.3
20260502212305 66 174 7.0 21.0 0.00 0.00 0.00 22 1011.4
20260502211804 66 288 2.0 10.0 0.00 0.00 0.00 16 1017.4
20260502210805 66 165 6.0 16.0 0.00 0.00 0.00 19 1020.0
20260502210305 65 181 3.0 13.0 0.00 0.00 0.00 20 1011.5
20260502205805 59 96 4.0 13.0 0.00 0.00 0.00 19 1011.7
20260502205305 59 186 3.0 14.0 0.00 0.00 0.00 22 1011.6
20260502204305 59 209 4.0 12.0 0.00 0.00 0.00 21 1011.8
20260502203805 59 348 2.0 14.0 0.00 0.00 0.00 20 1016.3
20260502203304 59 171 7.0 16.0 0.00 0.00 0.00 20 1011.8
20260502202805 60 170 6.0 16.0 0.00 0.00 0.00 22 1011.8
20260502202305 59 92 5.0 15.0 0.00 0.00 0.00 21 1021.3
20260502201805 59 182 3.0 14.0 0.00 0.00 0.00 21 1011.9
20260502201305 59 289 3.0 15.0 0.00 0.00 0.00 19 1017.8
20260502195805 63 212 5.0 13.0 0.00 0.00 0.00 20 1012.0
20260502194304 62 163 7.0 16.0 0.00 0.00 0.00 18 1012.1
20260502193805 63 163 5.0 16.0 0.00 0.00 0.00 21 1012.1
20260502193305 62 168 4.0 13.0 0.00 0.00 0.00 20 1012.3
20260502192805 62 190 5.0 17.0 0.00 0.00 0.00 22 1012.2
20260502192305 63 199 5.0 13.0 0.00 0.00 0.00 22 1012.2
20260502191805 62 161 6.0 14.0 0.00 0.00 0.00 20 1021.5
20260502191305 62 169 8.0 16.0 0.00 0.00 0.00 23 1012.3
20260502190804 62 153 8.0 14.0 0.00 0.00 0.00 18 1021.9
20260502185805 59 187 8.0 16.0 0.00 0.00 0.00 22 1012.5
20260502185306 59 171 6.0 13.0 0.00 0.00 0.00 21 1012.4
20260502184805 59 169 7.0 13.0 0.00 0.00 0.00 22 1012.7
20260502183305 59 256 4.0 14.0 0.00 0.00 0.00 22 1012.7
20260502182805 59 185 6.0 15.0 0.00 0.00 0.00 27 1012.8
20260502182305 59 157 9.0 16.0 0.00 0.00 0.00 25 1012.9
20260502181804 59 164 4.0 15.0 0.00 0.00 0.00 26 1013.2
20260502181305 59 179 6.0 14.0 0.00 0.00 0.00 25 1022.6
20260502180804 59 164 3.0 13.0 0.00 0.00 0.00 26 1013.0
20260502180305 59 158 6.0 13.0 0.00 0.00 0.00 23 1013.2
20260502164304 48 173 5.0 10.0 0.00 0.00 0.00 31 1013.8
20260502163805 47 159 7.0 13.0 0.00 0.00 0.00 41 1013.9
20260502163305 48 159 5.0 13.0 0.00 0.00 0.00 40 1013.7
20260502162804 47 152 7.0 9.0 0.00 0.00 0.00 35 1023.2
20260502161804 47 168 5.0 10.0 0.00 0.00 0.00 35 1014.0
20260502160805 47 244 3.0 12.0 0.00 0.00 0.00 35 1013.8
20260502160305 46 207 4.0 12.0 0.00 0.00 0.00 33 1013.9
20260502152305 41 199 3.0 5.0 0.00 0.00 0.00 46 1014.1
20260502151804 41 191 2.0 5.0 0.00 0.00 0.00 48 1014.0
20260502151304 40 157 3.0 6.0 0.00 0.00 0.00 48 1014.0
20260502150804 40 169 3.0 6.0 0.00 0.00 0.00 50 1014.2
20260502150304 39 178 3.0 5.0 0.00 0.00 0.00 51 1023.6
20260502130305 28 63 5.0 9.0 0.00 0.00 0.00 70 1022.0
20260502123804 27 55 5.0 8.0 0.00 0.00 0.00 71 1014.3
20260502123304 27 59 6.0 9.0 0.00 0.00 0.00 72 1014.4
20260502122804 27 70 5.0 9.0 0.00 0.00 0.00 71 1014.3
20260502122306 27 54 5.0 7.0 0.00 0.00 0.00 72 1014.3
20260502121805 27 67 5.0 8.0 0.00 0.00 0.00 72 1014.3
20260502121304 27 80 5.0 8.0 0.00 0.00 0.00 72 1025.1
20260502120804 27 43 4.0 12.0 0.00 0.00 0.00 71 1014.1
20260502120304 27 60 5.0 10.0 0.00 0.00 0.00 72 1014.3
20260502114804 28 68 4.0 6.0 0.00 0.00 0.00 71 1014.1
20260502113804 28 75 7.0 9.0 0.00 0.00 0.00 72 1014.2
20260502113305 28 69 3.0 8.0 0.00 0.00 0.00 72 1014.3
20260502112804 28 70 4.0 8.0 0.00 0.00 0.00 72 1014.1
20260502112305 28 70 4.0 8.0 0.00 0.00 0.00 72 1014.1
20260502111804 28 80 3.0 5.0 0.00 0.00 0.00 72 1014.1
20260502111304 28 102 4.0 5.0 0.00 0.00 0.00 71 1019.3
20260502110804 28 90 2.0 6.0 0.00 0.00 0.00 71 1014.0
20260502105804 28 73 6.0 9.0 0.00 0.00 0.00 71 1014.0
20260502105306 28 68 6.0 8.0 0.00 0.00 0.00 71 1014.0
20260502104804 28 61 5.0 8.0 0.00 0.00 0.00 71 1019.9
20260502104304 28 58 5.0 8.0 0.00 0.00 0.00 71 1014.1
20260502103804 28 88 2.0 8.0 0.00 0.00 0.00 71 1021.0
20260502103304 29 46 3.0 8.0 0.00 0.00 0.00 71 1014.1
20260502102804 29 56 3.0 7.0 0.00 0.00 0.00 71 1014.0
20260502102306 29 63 1.0 3.0 0.00 0.00 0.00 71 1013.9
20260502101804 29 10 1.0 5.0 0.00 0.00 0.00 71 1014.0
20260502101304 29 77 4.0 6.0 0.00 0.00 0.00 70 1024.1
20260502100805 30 63 3.0 6.0 0.00 0.00 0.00 70 1013.9
20260502100305 29 73 2.0 7.0 0.00 0.00 0.00 71 1013.9
20260502091306 30 13 2.0 5.0 0.00 0.00 0.00 72 1013.8
20260502070805 31 50 2.0 5.0 0.00 0.00 0.00 60 1020.1
20260502070306 31 56 2.0 5.0 0.00 0.00 0.00 70 1013.4
20260502065306 31 33 3.0 6.0 0.00 0.00 0.00 70 1013.5
20260502064806 32 61 5.0 7.0 0.00 0.00 0.00 70 1013.6
20260502064306 32 66 4.0 7.0 0.00 0.00 0.00 69 1013.6
20260502063806 32 58 5.0 8.0 0.00 0.00 0.00 69 1013.6
20260502063306 32 45 4.0 8.0 0.00 0.00 0.00 69 1013.4
20260502062806 32 55 6.0 8.0 0.00 0.00 0.00 69 1013.6
20260502062306 33 61 6.0 8.0 0.00 0.00 0.00 69 1013.4
20260502061806 32 68 5.0 8.0 0.00 0.00 0.00 68 1013.4
20260502061306 34 39 5.0 9.0 0.00 0.00 0.00 68 1013.5
20260502060806 32 62 6.0 9.0 0.00 0.00 0.00 68 1013.3